Temp
65 65 65 65 65 65 65 65 65 66 66 66 66 66 66 65 65 60 61 66 67 78 75 68 68 65 63 58 60 60 48 42 47 51 56 66 64 66 67 63 67 67 67 69 69
65 65 65 65 65 64 64 65 65 65 66 66 66 66 66 65 58 61 74 78 78 78 67 64 62 62 56 55 57 53 45 48 56 58 57 62 64 64 62 61 61 67 68 69 68
64 65 65 64 64 64 64 64 65 65 66 66 65 65 65 61 59 62 78 78 78 75 66 64 63 60 53 54 53 50 46 54 58 61 62 61 61 66 59 56 61 64 65 65 66
64 64 64 64 64 64 64 64 65 65 66 65 65 65 64 57 51 68 79 78 79 72 67 65 61 54 50 49 54 47 55 56 58 60 59 58 62 61 62 62 68 66 66 66 64
64 64 64 64 64 64 64 64 65 65 65 65 65 66 59 59 60 71 78 75 72 70 65 62 56 53 48 50 53 48 52 58 59 58 57 60 57 58 60 65 67 67 66 65 65
64 64 64 64 64 64 64 64 65 65 64 64 65 65 58 53 70 71 70 70 70 67 64 62 58 58 52 51 49 52 54 54 56 57 57 56 56 56 60 63 64 65 63 65 65
64 64 64 63 63 63 63 64 64 64 63 64 65 63 59 61 69 68 70 67 68 67 63 64 63 58 55 51 56 55 49 52 52 55 55 56 52 53 60 62 61 62 60 63 65
64 64 64 63 63 63 63 63 63 63 63 64 65 58 57 70 68 71 68 69 69 68 66 65 64 59 55 56 54 49 46 40 52 53 56 53 44 56 59 59 59 59 58 62 63
63 63 63 63 62 63 63 63 65 65 65 65 58 56 57 73 67 69 68 66 68 66 65 73 63 54 54 46 41 43 37 39 45 55 53 50 45 55 60 57 57 56 56 58 61
63 62 62 62 62 62 62 64 65 64 64 66 65 56 66 64 68 69 66 68 64 63 60 59 52 47 46 43 35 38 37 41 40 49 50 48 46 51 55 54 54 54 54 55 57
62 62 61 61 62 62 60 58 57 58 59 54 55 57 63 68 67 65 68 65 62 57 48 51 45 40 46 48 47 45 41 40 47 52 47 46 46 50 54 52 51 52 53 54 55
62 61 61 61 60 61 58 54 53 55 51 58 59 59 63 63 60 64 67 58 56 48 49 46 41 49 52 52 49 46 42 41 47 51 48 46 45 51 52 53 53 54 53 53 53
62 61 61 61 61 59 56 54 59 58 51 59 62 61 63 63 59 61 64 57 51 48 45 41 49 55 52 49 46 45 41 41 43 47 47 46 40 44 50 51 53 52 51 52 52
61 60 60 59 59 55 55 59 58 59 46 54 59 62 64 62 57 67 65 59 53 48 47 46 52 52 49 47 47 40 49 47 44 39 33 45 30 39 44 46 47 48 47 49 50
60 60 60 59 53 55 58 58 57 56 35 57 60 68 63 57 59 62 64 58 50 50 46 46 47 47 46 49 49 45 50 45 43 38 34 39 32 35 41 42 46 49 50 51 51
60 60 59 57 54 56 58 57 56 47 35 51 58 56 55 58 58 60 59 59 56 49 47 47 52 50 49 53 50 52 45 42 38 35 29 37 34 31 39 42 45 49 51 54 54
60 59 56 59 56 57 57 55 46 39 52 49 49 53 49 50 53 53 50 47 43 38 36 42 46 49 52 46 49 46 38 28 26 24 24 38 35 35 45 48 49 49 51 54 54
58 58 58 59 56 57 55 52 39 46 44 52 50 50 46 50 48 50 45 43 47 43 35 32 35 46 51 45 42 40 38 30 26 27 29 39 32 38 48 54 52 53 52 53 54
57 50 52 57 58 55 53 43 44 45 51 48 49 43 43 48 46 46 42 42 45 44 36 34 34 47 49 50 46 40 34 38 33 30 29 29 42 45 48 49 50 51 50 50 51
46 47 52 58 57 54 49 46 47 51 53 50 40 44 38 42 43 42 41 46 47 48 45 39 32 43 48 49 47 43 43 33 32 23 25 29 31 37 43 44 48 48 47 47 48
46 49 56 57 56 51 44 44 50 56 55 49 44 42 42 41 40 39 42 46 48 49 46 41 36 39 43 41 39 40 38 38 36 34 25 29 30 45 44 45 44 47 48 47 49
44 45 55 55 48 40 43 49 55 54 53 51 49 48 44 43 40 40 42 46 49 47 42 42 36 31 39 44 46 42 38 38 30 30 32 30 34 44 43 47 48 48 49 47 49
46 44 54 54 43 41 45 51 54 52 51 50 48 49 48 44 39 43 44 50 49 48 41 43 35 29 35 40 43 40 41 40 38 34 30 25 33 45 46 44 47 47 47 48 48
45 44 47 47 44 46 46 48 49 53 52 51 49 49 44 42 45 42 42 48 49 47 54 49 36 34 30 35 37 37 41 39 36 30 30 31 35 42 42 44 44 45 47 48 48
42 44 47 41 44 45 47 50 48 48 51 50 44 47 45 39 39 40 42 44 47 51 44 42 35 33 37 39 39 39 39 39 36 36 32 36 36 41 40 41 42 45 46 47 48
42 41 43 45 46 46 46 46 49 49 49 47 45 47 45 42 44 42 42 40 41 43 39 40 35 34 33 39 39 37 40 39 40 39 38 38 38 42 42 41 42 43 45 45 46
43 44 47 44 43 45 44 48 49 52 51 52 48 44 42 46 48 48 47 46 45 42 39 38 34 31 29 36 37 36 40 41 40 40 40 35 41 41 42 45 42 42 45 45 45
MSLP
1018.30 1017.92 1018.12 1017.91 1017.44 1017.12 1016.97 1016.65 1016.23 1016.25 1015.63 1015.46 1014.77 1014.67 1014.57 1014.24 1013.50 1013.26 1013.08 1012.85 1012.68 1012.28 1012.04 1011.85 1011.93 1012.15 1012.30 1012.60 1012.75 1013.06 1013.80 1013.77 1013.11 1012.36 1011.39 1010.60 1010.42 1010.25 1010.32 1010.48 1010.35 1010.32 1010.32 1009.47 1011.08
1018.29 1018.02 1018.11 1017.73 1017.32 1017.08 1016.72 1016.34 1016.09 1015.96 1015.51 1015.10 1014.91 1014.78 1014.47 1014.21 1013.97 1013.24 1012.59 1012.44 1012.35 1012.16 1012.27 1012.33 1012.46 1012.58 1012.94 1013.08 1013.24 1013.46 1014.01 1013.64 1012.88 1012.20 1011.74 1011.12 1010.83 1010.45 1010.65 1010.44 1010.37 1010.16 1010.30 1010.96 1011.14
1018.28 1018.10 1017.89 1017.56 1017.28 1016.88 1016.44 1016.12 1015.72 1015.77 1015.36 1015.04 1014.94 1014.66 1014.35 1014.31 1013.94 1012.98 1012.35 1012.35 1012.22 1012.14 1012.36 1012.54 1012.68 1012.82 1013.27 1013.42 1013.68 1013.84 1013.82 1013.28 1012.71 1012.11 1011.80 1011.36 1010.83 1010.61 1010.63 1010.60 1010.24 1010.14 1010.46 1010.93 1011.20
1018.19 1018.13 1017.82 1017.43 1017.05 1016.64 1016.31 1015.75 1015.66 1015.66 1015.20 1014.92 1014.81 1014.58 1014.29 1014.24 1013.85 1012.51 1012.22 1012.26 1012.13 1012.08 1012.27 1012.49 1012.75 1013.28 1013.78 1014.00 1013.96 1013.98 1013.44 1013.19 1012.71 1012.09 1011.88 1011.48 1010.97 1010.44 1010.22 1010.12 1009.44 1009.39 1009.85 1010.36 1010.82
1018.32 1018.10 1017.64 1017.19 1016.93 1016.51 1016.00 1015.73 1015.59 1015.37 1015.11 1014.84 1014.68 1014.49 1014.27 1013.84 1013.11 1012.21 1012.26 1012.32 1012.22 1012.22 1012.54 1012.80 1013.15 1013.52 1013.99 1014.19 1014.12 1014.03 1013.59 1013.10 1012.47 1012.19 1011.84 1011.34 1010.98 1010.58 1009.79 1009.55 1009.17 1009.24 1009.48 1009.81 1010.26
1018.34 1017.92 1017.58 1017.19 1016.74 1016.36 1015.97 1015.62 1015.32 1015.12 1014.92 1014.80 1014.70 1014.49 1014.24 1013.53 1012.28 1012.21 1012.30 1012.34 1012.30 1012.35 1012.55 1012.78 1013.17 1013.39 1013.87 1014.12 1014.34 1014.05 1013.76 1013.28 1012.66 1012.18 1011.74 1011.44 1010.87 1010.63 1009.71 1009.12 1009.28 1009.23 1009.32 1009.54 1009.57
1018.34 1017.99 1017.48 1017.01 1016.51 1016.04 1015.62 1015.28 1014.96 1014.77 1014.66 1014.64 1014.57 1014.49 1014.02 1013.00 1012.28 1012.32 1012.31 1012.32 1012.28 1012.34 1012.55 1012.70 1013.01 1013.43 1013.82 1014.07 1013.98 1013.92 1014.08 1013.48 1012.87 1012.46 1011.87 1011.38 1011.04 1010.52 1009.73 1009.57 1009.38 1009.28 1009.60 1009.71 1009.53
1018.34 1017.90 1017.36 1016.75 1016.22 1015.79 1015.33 1014.95 1014.56 1014.37 1014.46 1014.50 1014.44 1014.41 1013.45 1012.29 1012.22 1012.34 1012.37 1012.24 1012.23 1012.22 1012.41 1012.55 1012.94 1013.48 1013.81 1014.08 1014.15 1014.33 1014.37 1014.22 1013.12 1012.64 1011.76 1011.64 1011.51 1010.63 1010.07 1009.99 1009.92 1009.62 1009.59 1009.68 1009.71
1018.23 1017.84 1017.26 1016.64 1016.13 1015.64 1015.09 1014.63 1014.37 1014.36 1014.45 1014.47 1014.52 1014.19 1013.16 1012.16 1012.25 1012.23 1012.22 1012.34 1012.23 1012.28 1012.40 1012.68 1013.05 1013.92 1014.38 1014.84 1015.15 1015.28 1015.18 1014.65 1013.72 1012.44 1012.31 1012.11 1011.77 1011.09 1010.18 1010.33 1010.44 1010.01 1009.76 1009.70 1009.56
1018.19 1017.77 1017.25 1016.68 1015.86 1015.32 1014.89 1014.80 1014.68 1014.54 1014.51 1014.43 1014.40 1014.44 1013.01 1012.79 1012.45 1012.24 1012.18 1012.29 1012.48 1012.61 1012.91 1013.21 1013.95 1014.55 1015.00 1015.40 1015.86 1015.66 1015.32 1014.79 1014.19 1012.88 1012.56 1012.34 1011.97 1011.26 1010.62 1010.53 1010.55 1010.37 1009.98 1009.66 1009.54
1018.19 1017.88 1017.40 1016.64 1015.75 1015.18 1014.87 1015.01 1015.52 1015.31 1014.86 1015.18 1015.00 1014.50 1013.69 1013.05 1012.64 1012.35 1012.23 1012.45 1012.75 1013.17 1013.80 1014.28 1015.01 1015.27 1015.21 1015.13 1015.24 1015.23 1015.10 1014.61 1013.63 1012.73 1012.85 1012.44 1012.04 1011.41 1010.64 1010.39 1010.47 1010.52 1010.18 1009.63 1009.28
1018.18 1017.88 1017.48 1016.84 1016.03 1015.09 1015.03 1016.16 1016.76 1016.82 1015.98 1015.13 1014.85 1014.51 1013.77 1013.44 1013.15 1012.53 1012.44 1012.92 1013.25 1013.83 1014.23 1014.81 1014.94 1014.58 1014.62 1014.54 1014.71 1014.66 1014.69 1014.13 1013.29 1012.73 1012.68 1012.25 1012.08 1010.98 1010.53 1010.20 1010.15 1010.20 1010.15 1009.80 1009.28
1018.19 1017.90 1017.40 1016.62 1015.97 1015.85 1016.32 1016.86 1016.78 1016.77 1016.36 1015.04 1014.31 1013.93 1013.56 1013.59 1013.52 1013.03 1012.91 1013.20 1013.62 1014.06 1014.59 1014.98 1014.46 1014.21 1014.40 1014.26 1014.32 1014.26 1014.23 1014.03 1013.77 1012.88 1012.48 1012.90 1012.14 1011.48 1010.80 1010.62 1010.37 1010.51 1010.41 1010.04 1009.54
1018.22 1017.88 1017.33 1016.76 1016.51 1016.84 1016.89 1016.85 1016.76 1016.72 1016.59 1015.40 1014.14 1013.42 1013.43 1013.56 1013.63 1013.23 1013.14 1013.55 1013.80 1014.34 1014.67 1014.82 1014.19 1014.28 1014.12 1014.17 1014.12 1013.68 1013.46 1014.01 1014.01 1013.75 1014.25 1014.00 1013.79 1012.51 1011.84 1011.18 1011.00 1010.86 1010.68 1010.13 1009.48
1018.17 1017.89 1017.57 1017.22 1017.09 1016.96 1017.08 1016.84 1016.73 1016.80 1016.67 1015.44 1013.96 1013.09 1013.51 1014.04 1013.97 1013.59 1013.55 1013.64 1014.23 1014.65 1015.20 1014.82 1014.51 1014.36 1014.12 1013.84 1013.92 1013.87 1013.43 1013.96 1014.25 1014.72 1015.31 1015.09 1015.14 1013.48 1012.99 1011.98 1011.46 1010.99 1010.60 1010.00 1009.25
1018.13 1017.94 1017.70 1017.29 1017.24 1016.97 1016.83 1016.74 1016.96 1016.85 1016.57 1015.45 1014.60 1014.44 1014.45 1014.55 1014.56 1014.36 1014.33 1014.28 1014.63 1015.15 1015.36 1015.28 1014.67 1014.55 1014.11 1013.60 1013.82 1013.76 1013.76 1014.43 1014.81 1015.59 1016.00 1016.28 1016.18 1014.56 1013.65 1013.15 1011.82 1011.24 1010.67 1009.82 1008.88
1018.00 1017.76 1017.73 1017.39 1017.11 1016.83 1016.91 1017.07 1017.19 1016.94 1016.87 1016.36 1015.88 1015.76 1015.90 1015.84 1015.48 1015.59 1015.80 1015.96 1016.43 1016.53 1016.90 1016.03 1015.01 1014.51 1014.31 1014.21 1014.05 1014.43 1014.93 1016.09 1016.47 1016.97 1017.01 1016.52 1016.24 1015.44 1014.19 1012.26 1012.28 1011.51 1010.86 1009.82 1008.80
1017.84 1017.52 1017.24 1016.97 1016.87 1016.90 1017.10 1016.93 1017.01 1017.11 1016.78 1016.60 1016.54 1016.44 1016.66 1016.74 1016.63 1016.49 1016.62 1017.06 1017.01 1017.44 1018.11 1017.94 1015.93 1015.16 1014.82 1014.93 1015.16 1015.69 1016.50 1017.86 1018.42 1018.48 1017.70 1016.41 1015.99 1015.37 1014.66 1013.20 1012.52 1011.80 1011.26 1010.45 1009.60
1017.68 1017.51 1017.33 1016.75 1016.73 1017.06 1017.28 1017.16 1016.92 1016.77 1016.49 1016.69 1016.94 1017.06 1017.29 1017.33 1017.55 1017.20 1017.22 1017.49 1017.44 1017.52 1018.18 1018.14 1016.97 1015.61 1015.09 1015.07 1015.37 1015.87 1017.05 1017.83 1018.22 1018.62 1018.23 1016.84 1015.46 1015.03 1014.64 1013.57 1012.95 1012.55 1011.88 1011.48 1010.99
1018.49 1018.03 1017.21 1016.51 1016.69 1017.08 1017.50 1017.12 1016.80 1016.47 1016.41 1016.72 1017.33 1017.53 1017.86 1017.78 1017.86 1017.67 1017.54 1017.40 1017.41 1017.51 1017.83 1018.40 1018.12 1016.29 1015.54 1015.36 1015.75 1016.02 1017.09 1017.80 1018.46 1019.04 1018.25 1016.92 1016.16 1015.61 1014.74 1014.54 1013.93 1013.47 1013.31 1013.06 1012.54
1018.73 1018.12 1016.78 1016.53 1016.68 1017.16 1017.63 1017.12 1016.56 1016.15 1016.24 1016.73 1017.19 1017.59 1017.76 1018.01 1018.04 1017.95 1017.73 1017.55 1017.43 1017.55 1017.77 1018.29 1018.88 1017.18 1016.29 1016.04 1016.39 1016.65 1017.10 1017.75 1018.48 1018.70 1018.68 1017.83 1016.53 1015.80 1015.69 1015.51 1014.88 1014.69 1014.52 1014.22 1013.61
1018.67 1018.48 1016.85 1016.66 1017.25 1017.78 1017.56 1016.63 1016.03 1016.15 1016.31 1016.64 1016.93 1017.34 1017.61 1017.89 1018.03 1017.99 1017.82 1017.53 1017.51 1017.64 1018.01 1018.40 1019.08 1018.88 1017.40 1016.46 1016.42 1016.60 1017.12 1017.77 1018.54 1018.64 1018.45 1018.04 1016.64 1015.90 1015.88 1015.61 1015.46 1015.33 1015.25 1015.10 1014.74
1018.43 1017.96 1017.00 1016.79 1017.29 1017.73 1017.08 1016.50 1016.10 1016.24 1016.40 1016.76 1017.12 1017.37 1017.54 1017.92 1018.22 1017.98 1017.80 1017.55 1017.59 1017.78 1018.11 1018.55 1019.28 1019.25 1017.78 1017.38 1016.88 1017.04 1017.29 1017.67 1017.89 1018.28 1018.24 1018.07 1016.41 1015.90 1015.71 1015.85 1015.84 1015.83 1015.71 1015.73 1015.45
1018.39 1018.23 1017.78 1017.49 1017.13 1016.71 1016.86 1016.55 1016.27 1016.02 1016.25 1016.57 1017.16 1017.50 1017.89 1018.00 1018.13 1018.15 1018.06 1017.86 1017.88 1017.99 1018.21 1018.61 1019.62 1019.87 1019.63 1018.73 1018.37 1017.86 1017.31 1017.44 1017.62 1017.87 1017.57 1017.26 1016.45 1015.76 1015.94 1015.96 1016.13 1016.22 1016.11 1016.11 1016.01
1018.03 1017.42 1016.50 1017.29 1017.05 1016.48 1016.12 1016.03 1016.12 1016.19 1016.34 1016.68 1017.40 1017.64 1017.98 1018.28 1018.45 1018.43 1018.24 1018.31 1018.16 1018.42 1018.61 1019.22 1019.95 1019.94 1019.33 1018.76 1018.41 1017.67 1017.19 1016.83 1017.05 1016.72 1016.91 1016.34 1016.28 1015.86 1016.01 1016.02 1016.15 1016.43 1016.58 1016.50 1016.52
1017.29 1017.32 1016.73 1016.28 1015.94 1016.28 1016.03 1015.81 1015.53 1015.89 1016.08 1016.76 1017.24 1017.36 1017.85 1018.17 1018.16 1018.38 1018.49 1018.81 1018.80 1019.01 1019.46 1020.04 1020.34 1020.39 1019.40 1018.29 1017.89 1017.14 1016.18 1015.89 1015.98 1015.95 1015.92 1015.79 1015.65 1015.46 1015.74 1015.99 1016.21 1016.61 1016.87 1017.12 1017.37
1016.27 1016.23 1016.14 1015.87 1015.97 1016.04 1015.43 1014.89 1014.87 1015.28 1015.83 1015.89 1016.54 1017.48 1018.02 1017.66 1017.60 1017.90 1018.26 1018.65 1018.88 1019.42 1020.13 1020.71 1021.00 1021.18 1020.15 1018.68 1017.50 1016.46 1015.16 1014.93 1014.94 1015.16 1015.43 1015.57 1015.13 1015.16 1015.63 1016.01 1016.34 1016.62 1016.86 1017.28 1017.77
Wind_Speed
11 12 12 13 13 13 13 14 13 15 14 15 16 15 14 15 11 1 4 2 3 10 8 5 4 5 4 2 2 3 1 2 3 2 3 2 5 2 2 3 2 4 3 4 15
11 11 12 12 13 13 13 13 13 14 15 15 14 13 14 12 4 3 3 4 7 10 6 7 6 6 3 3 3 3 3 6 5 2 4 6 3 4 3 4 5 1 5 11 15
11 12 13 13 13 14 14 14 14 14 14 14 13 12 11 4 3 3 1 3 6 6 1 1 0 2 3 3 4 2 3 4 4 5 5 5 6 4 4 5 8 6 7 12 12
12 12 13 13 14 14 14 15 15 13 13 13 12 11 8 1 4 3 2 4 8 5 3 4 6 5 4 3 3 2 6 4 5 3 3 5 4 5 8 10 10 9 10 14 16
12 13 13 14 14 15 15 15 15 13 12 12 11 10 2 5 1 2 2 5 5 3 4 3 4 2 3 3 5 3 4 5 7 9 6 6 8 8 8 9 11 4 10 17 16
13 14 14 14 15 15 15 15 15 13 11 10 9 8 2 3 2 1 1 5 2 2 2 2 1 1 1 1 0 3 5 8 7 7 5 4 8 2 5 6 9 6 9 13 16
13 14 16 16 17 16 16 15 15 13 9 6 5 2 1 3 1 3 1 2 1 0 2 1 2 3 1 4 2 3 5 7 2 4 6 3 6 5 6 5 6 7 3 6 11
14 16 18 18 19 18 17 16 14 8 4 3 2 1 3 1 2 5 1 4 1 1 1 1 3 1 1 4 5 4 3 4 8 5 4 0 8 13 7 6 11 7 6 7 10
15 18 20 21 20 17 15 8 3 7 5 3 1 2 4 4 3 3 2 2 4 1 1 1 3 2 4 3 5 5 4 4 8 5 4 3 7 8 10 7 8 9 7 5 8
16 17 20 21 20 15 10 1 5 4 0 1 1 4 5 4 4 4 1 0 2 5 3 6 5 4 3 4 3 6 5 4 7 6 0 9 11 12 12 7 8 9 8 8 7
15 17 19 21 21 15 3 2 6 4 9 2 1 2 5 8 2 2 2 2 2 4 4 4 5 3 7 3 6 6 4 7 10 10 4 8 9 13 12 7 8 9 9 9 8
14 17 19 19 17 15 4 7 3 2 2 2 4 5 5 2 4 4 2 4 4 4 3 6 1 4 5 6 5 7 7 9 8 6 5 8 10 15 12 10 7 7 8 9 7
15 16 18 21 10 5 5 3 3 2 3 4 3 3 5 2 3 6 3 1 1 4 2 3 5 4 3 8 6 6 6 5 12 9 2 8 6 7 5 5 6 6 5 7 7
14 15 18 23 5 2 3 4 1 2 6 6 4 2 1 1 2 3 2 0 2 4 4 5 3 4 7 5 2 7 2 6 7 6 4 6 5 6 11 7 6 9 9 9 11
14 14 14 10 2 3 2 2 1 2 4 4 5 1 6 1 2 4 3 1 3 4 3 6 5 5 4 6 2 9 9 2 1 5 3 8 2 8 7 10 16 16 14 14 14
13 13 13 2 1 1 1 1 3 7 1 5 3 6 6 6 6 5 6 6 1 3 3 6 4 2 3 8 1 8 4 3 2 4 4 7 4 6 10 15 16 13 14 14 15
13 13 8 1 1 0 1 3 6 7 3 4 3 5 3 5 5 7 4 8 5 8 8 9 6 4 1 6 4 9 7 6 8 8 3 6 4 4 18 13 8 14 12 11 7
13 13 2 3 0 1 2 4 5 2 3 2 3 4 2 6 4 7 2 5 4 4 2 4 10 6 6 1 3 4 3 3 2 5 6 5 3 5 15 15 13 14 11 11 13
10 3 3 2 3 2 4 4 6 5 3 1 4 4 4 3 2 5 3 0 2 2 3 5 7 5 3 3 2 3 5 1 1 0 2 4 4 5 12 18 15 13 14 16 14
3 4 3 0 3 4 5 4 5 3 4 3 2 1 1 4 5 5 1 2 3 2 3 1 6 3 6 2 4 5 4 3 3 6 7 4 4 7 14 16 15 14 13 13 12
3 3 2 2 3 5 3 5 4 3 4 4 5 2 3 2 1 2 3 1 2 4 3 2 2 9 3 4 1 4 3 4 1 2 1 6 4 3 4 7 11 10 11 11 12
2 1 2 1 4 1 3 5 3 4 2 1 3 4 3 1 2 2 3 3 3 2 4 0 4 5 7 3 3 0 2 4 4 6 2 1 6 2 3 3 2 8 9 8 7
3 3 3 3 4 3 3 2 5 4 4 5 5 3 2 3 2 4 2 2 5 4 2 2 1 5 9 5 5 4 2 0 1 3 2 2 6 1 5 6 5 5 6 5 6
2 1 3 3 1 7 6 5 4 2 4 4 4 3 2 2 3 3 2 1 4 0 6 3 2 6 6 6 1 6 10 1 1 2 2 5 7 6 7 5 5 5 5 5 6
2 6 4 4 5 5 6 8 6 6 3 4 1 5 6 3 2 4 3 3 3 6 3 4 2 3 7 10 5 8 11 7 5 4 3 5 3 4 3 2 3 4 4 6 6
5 4 1 2 3 8 7 9 11 5 8 5 5 8 6 6 9 6 4 2 6 3 3 3 3 4 6 3 1 6 8 8 6 3 5 3 5 3 1 2 3 5 5 5 5
3 2 2 2 5 6 7 7 10 8 5 5 8 7 5 11 7 8 6 4 4 6 1 2 2 3 6 5 9 6 4 4 2 3 4 4 6 1 3 4 3 3 5 6 6
Wind_Direction
348 350 335 333 338 336 331 332 337 327 339 339 346 347 343 343 330 332 23 249 316 329 349 327 41 19 40 44 35 113 76 224 240 198 266 42 21 13 136 287 286 185 232 74 141
343 341 330 331 334 324 324 326 330 329 333 345 342 342 346 347 7 2 265 298 322 340 9 28 7 2 37 14 19 97 131 216 221 291 285 301 295 10 313 292 281 276 64 136 145
341 337 331 329 326 321 324 323 328 328 331 338 338 342 339 335 47 311 252 302 325 354 194 192 333 53 61 10 10 51 202 240 282 274 276 258 291 232 207 260 240 242 173 170 165
343 332 329 330 328 323 320 326 318 320 327 331 335 336 323 267 66 279 275 321 333 342 28 22 20 39 50 9 334 349 243 221 258 254 305 278 277 243 211 226 240 220 181 176 181
338 334 337 334 324 323 324 316 311 318 321 324 332 336 329 35 235 263 221 343 333 21 51 42 46 45 13 324 329 183 259 261 262 284 257 257 255 239 242 248 260 287 183 191 189
340 341 335 331 327 323 317 310 309 313 313 317 323 333 24 66 296 309 9 341 318 20 12 56 93 174 209 267 3 292 286 283 292 280 262 265 270 218 255 245 268 235 195 194 194
339 339 338 332 327 325 317 311 308 305 297 297 310 7 346 232 348 357 329 243 248 194 333 110 134 49 6 316 242 290 324 334 302 296 294 209 317 244 269 326 311 278 197 221 200
344 343 338 333 329 324 318 315 305 286 243 231 272 190 225 307 285 321 149 321 271 239 205 291 140 103 143 308 351 348 61 19 290 319 280 7 276 282 303 356 314 308 290 192 213
347 344 338 333 326 324 325 330 36 119 136 182 14 34 303 316 337 320 187 293 311 355 9 115 76 72 22 32 359 357 280 274 303 203 265 215 281 275 305 333 293 301 301 245 215
346 342 334 330 326 328 337 116 113 114 83 198 116 44 342 300 294 324 270 57 342 331 32 40 48 33 19 58 313 291 294 267 250 269 279 277 265 268 276 277 261 284 290 284 231
344 339 333 333 327 333 51 40 17 355 41 79 283 249 294 287 291 330 302 27 345 49 13 2 48 280 274 252 232 257 242 259 272 276 216 252 266 273 272 281 266 264 269 272 248
342 338 332 330 323 330 74 74 148 199 359 172 265 280 250 274 331 322 14 10 29 305 8 15 266 236 273 278 284 284 273 277 278 274 213 278 286 268 263 258 237 253 271 280 292
338 332 334 334 316 20 70 75 292 160 92 313 238 276 279 102 313 289 24 5 335 309 36 177 257 329 323 310 305 298 247 281 303 324 239 358 279 344 323 307 336 5 325 297 273
332 333 339 333 34 312 37 321 305 159 76 312 351 328 44 103 299 301 350 12 323 297 341 259 286 322 316 280 276 315 229 319 321 25 337 18 309 313 330 326 343 327 320 307 301
327 332 337 353 197 65 279 301 144 42 68 311 303 322 328 171 287 337 4 349 269 305 54 266 309 340 322 281 329 262 320 331 271 78 9 1 319 283 341 332 332 324 328 317 298
320 324 337 346 31 163 319 58 49 46 37 341 345 350 15 10 2 318 13 25 35 0 344 255 299 240 265 304 39 281 5 21 48 68 35 350 356 308 344 318 312 321 327 316 303
318 319 317 296 242 206 92 58 40 94 1 328 339 360 328 317 355 23 25 9 43 6 358 329 316 303 337 342 360 13 8 360 358 8 250 27 18 292 319 325 331 337 337 336 344
315 318 251 226 296 59 55 57 79 176 220 348 12 337 39 9 358 349 58 14 13 58 356 4 334 10 349 39 292 11 67 113 350 336 311 335 5 304 340 349 346 356 352 14 26
328 329 300 265 150 79 69 63 191 201 171 35 343 59 327 349 4 21 32 279 273 56 33 5 282 314 242 321 50 330 30 246 207 225 313 265 342 128 357 346 1 7 9 12 19
3 346 269 88 110 69 73 207 182 199 133 109 143 115 312 308 10 24 292 313 319 70 132 288 305 259 291 136 35 91 164 22 15 24 335 330 313 327 356 352 359 10 10 4 14
33 18 256 49 83 55 168 217 206 190 140 144 183 184 211 276 239 284 275 319 350 318 154 132 114 291 330 42 320 354 29 32 159 129 302 322 303 339 360 15 328 15 19 5 18
103 309 291 74 70 54 170 194 180 161 124 133 133 185 189 232 267 276 258 211 333 265 320 164 154 282 261 285 261 189 41 104 106 302 245 178 284 41 72 38 34 17 19 0 13
187 239 320 94 167 218 252 214 183 135 177 164 190 194 182 206 286 215 258 182 20 2 46 184 330 335 352 5 10 34 347 10 159 65 238 78 289 91 73 50 19 39 19 14 34
111 196 320 48 308 150 161 197 196 206 150 145 160 114 142 235 215 277 268 265 326 62 66 112 149 169 207 224 216 300 306 342 122 100 274 227 296 342 5 45 32 29 39 43 35
143 232 187 198 244 183 163 163 161 171 186 151 84 198 178 202 264 242 229 333 336 333 60 87 245 220 250 260 243 253 267 286 229 220 176 280 246 309 342 15 70 91 81 61 51
156 162 356 195 106 142 170 204 175 173 151 206 187 192 182 181 199 233 185 175 235 355 60 353 281 359 294 264 110 262 254 246 229 221 257 257 283 165 192 106 79 113 112 91 87
182 278 129 178 147 143 206 188 189 148 219 167 178 134 191 233 216 231 203 198 198 169 124 40 106 39 276 333 318 313 225 195 198 186 189 215 232 156 163 139 165 168 159 157 158